Location: *
(1.3500°S, 147.5000°W)
Time: 17:29:43
(UTC+00:00)

Hubble Space Telescope - Visible Passes

Search period start: 13 June 2021 00:00
Search period end: 23 June 2021 00:00
Orbit: 535 x 539 km, 28.5° (Epoch: 12 June)

Date Brightness Start Highest point End Pass type
(mag) Time Alt. Az. Time Alt. Az. Time Alt. Az.
19 Jun 3.5 05:54:26 10° N 05:55:02 12° N 05:55:02 12° N visible
20 Jun 3.0 05:42:47 10° NNW 05:44:41 17° N 05:44:41 17° N visible
21 Jun 2.3 05:31:23 10° NNW 05:34:22 26° NNE 05:34:22 26° NNE visible
22 Jun 1.6 05:20:07 10° NW 05:23:55 36° NNE 05:24:06 36° NE visible
